Torna al catalogo

SL-6 R/B(2)

AttivoHEO
NORAD 16106·ROCKET BODY·🇷🇺 Russia

Lanciato Sep 30, 1985 da Plesetsk Cosmodrome

Loading…

Prossimi Passaggi (prossime 24 ore)

TLE

AggiornatoSource: Space-Track

Epoca: Sep 13, 2026, 12:54 UTC

1 16106U 85088D   26256.53761610 -.00000616  00000-0  00000-0 0  9997
2 16106  65.0326 124.3335 6849576  29.4773 356.0737  2.04649986305890

Traccia SL-6 R/B(2) in tempo reale con AllMySat

Download on the App Store